Back to catalog

ONEWEB-0567

AliveCommunicationsPO
NORAD 55147·PAYLOAD·🇬🇧 United Kingdom

Launched Jan 10, 2023 from Cape Canaveral Space Force Station

Loading…

Next Passes (next 24 hours)

TLE

FreshSource: CelesTrak SupGP

Epoch: Sep 14, 2026, 19:56 UTC

1 55147C 23004H   26257.83108056 -.00002769  00000+0 -70323-2 0  2573
2 55147  87.9161 317.6563 0001622  96.6515 302.1337 13.18689952    12

Track ONEWEB-0567 in real time with AllMySat

Download on the App Store